M I D A S
Marine Information and Data Acquisition System
Tripno 1882 of the Zeeleeuw from 2010-05-20 07:24:50 to 2010-05-20 13:17:42
Back to CruiseResearch ActivitiesStationsMapUnderway DataData graphs

EquipmentUnitsComments
TimeDGPSUTC
LatitudeDGPSDM.mWGS84
LongitudeDGPSDM.mWGS84
SpeedMeteo Stationm/sRelative wind speed
DirectionMeteo StationdegRelative wind direction
TemperatureMeteo Stationdeg CelciusAir temperature
PressureMeteo StationPaAtmospheric pressure
HumidityMeteo Station%Relative humidity
Missing or incorrect values are displayed as -999
Metereological data collected by the RV Zeeleeuw from 2010-05-20 06:15:02 to 2010-05-20 15:18:10
                                                                                    Next 1000 lines
Time Latitude Longitude Speed Direction Temperature Pressure Humidity
2010-05-20 06:15:13 51°13.661 2°55.964 -999 25 10.7 103140 33
2010-05-20 06:15:17 51°13.661 2°55.964 -999 13 10.7 103140 33
2010-05-20 06:15:22 51°13.66 2°55.964 -999 13 10.7 103140 33
2010-05-20 06:15:27 51°13.66 2°55.964 -999 351 10.7 103140 33
2010-05-20 06:15:32 51°13.659 2°55.964 -999 353 10.7 103140 33
2010-05-20 06:15:37 51°13.659 2°55.964 -999 358 10.7 103150 33
2010-05-20 06:15:42 51°13.659 2°55.964 -999 358 10.7 103150 33
2010-05-20 06:15:47 51°13.659 2°55.964 -999 356 10.7 103140 33
2010-05-20 06:15:52 51°13.659 2°55.964 -999 356 10.7 103140 33
2010-05-20 06:15:57 51°13.659 2°55.964 -999 356 10.7 103140 33
2010-05-20 06:16:03 51°13.659 2°55.963 -999 356 10.7 103140 33
2010-05-20 06:16:07 51°13.659 2°55.963 -999 356 10.7 103150 33
2010-05-20 06:16:12 51°13.659 2°55.963 -999 356 10.7 103150 33
2010-05-20 06:16:17 51°13.659 2°55.963 -999 17 10.7 103150 33
2010-05-20 06:16:22 51°13.659 2°55.963 -999 7 10.7 103150 33
2010-05-20 06:16:27 51°13.659 2°55.963 -999 15 10.7 103150 32
2010-05-20 06:16:32 51°13.66 2°55.963 -999 18 10.7 103150 32
2010-05-20 06:16:37 51°13.66 2°55.962 -999 14 10.7 103150 33
2010-05-20 06:16:42 51°13.66 2°55.962 -999 18 10.7 103150 33
2010-05-20 06:16:48 51°13.661 2°55.962 -999 16 10.7 103150 33
2010-05-20 06:16:53 51°13.661 2°55.962 -999 18 10.7 103150 33
2010-05-20 06:16:58 51°13.661 2°55.962 -999 11 10.7 103150 33
2010-05-20 06:17:03 51°13.661 2°55.962 -999 16 10.7 103150 33
2010-05-20 06:17:08 51°13.661 2°55.961 -999 21 10.7 103150 33
2010-05-20 06:17:13 51°13.661 2°55.961 -999 21 10.7 103150 33
2010-05-20 06:17:18 51°13.661 2°55.961 -999 21 10.7 103150 33
2010-05-20 06:17:23 51°13.661 2°55.961 -999 22 10.7 103150 33
2010-05-20 06:17:28 51°13.661 2°55.961 -999 24 10.7 103150 33
2010-05-20 06:17:33 51°13.661 2°55.961 -999 11 10.7 103150 33
2010-05-20 06:17:38 51°13.662 2°55.961 -999 20 10.7 103150 33
2010-05-20 06:17:43 51°13.662 2°55.961 -999 20 10.7 103150 33
2010-05-20 06:17:48 51°13.662 2°55.961 -999 8 10.7 103150 33
2010-05-20 06:17:53 51°13.662 2°55.961 -999 10 10.7 103150 33
2010-05-20 06:17:58 51°13.662 2°55.961 -999 19 10.7 103150 33
2010-05-20 06:18:03 51°13.661 2°55.961 -999 21 10.7 103150 33
2010-05-20 06:18:08 51°13.661 2°55.961 -999 22 10.7 103150 33
2010-05-20 06:18:13 51°13.661 2°55.961 -999 19 10.7 103150 33
2010-05-20 06:18:18 51°13.661 2°55.961 -999 18 10.7 103150 33
2010-05-20 06:18:23 51°13.661 2°55.961 -999 20 10.7 103150 33
2010-05-20 06:18:28 51°13.661 2°55.961 -999 20 10.7 103150 33
2010-05-20 06:18:33 51°13.661 2°55.961 -999 23 10.7 103150 33
2010-05-20 06:18:38 51°13.661 2°55.961 -999 21 10.7 103150 33
2010-05-20 06:18:43 51°13.661 2°55.96 -999 19 10.7 103150 33
2010-05-20 06:18:48 51°13.661 2°55.96 -999 18 10.7 103150 33
2010-05-20 06:18:53 51°13.661 2°55.96 -999 16 10.7 103150 33
2010-05-20 06:18:58 51°13.661 2°55.96 -999 14 10.7 103150 33
2010-05-20 06:19:03 51°13.661 2°55.96 -999 16 10.7 103150 33
2010-05-20 06:19:07 51°13.66 2°55.96 -999 20 10.7 103150 32
2010-05-20 06:19:12 51°13.66 2°55.96 -999 18 10.7 103150 32
2010-05-20 06:19:18 51°13.66 2°55.96 -999 17 10.7 103150 33
2010-05-20 06:19:23 51°13.66 2°55.96 -999 16 10.7 103150 33
2010-05-20 06:19:28 51°13.661 2°55.96 -999 19 10.7 103150 33
2010-05-20 06:19:33 51°13.661 2°55.96 -999 14 10.7 103150 33
2010-05-20 06:19:38 51°13.661 2°55.96 -999 14 10.7 103150 33
2010-05-20 06:19:43 51°13.661 2°55.96 -999 16 10.7 103150 33
2010-05-20 06:19:48 51°13.661 2°55.96 -999 18 10.7 103150 33
2010-05-20 06:19:53 51°13.661 2°55.96 -999 17 10.7 103150 33
2010-05-20 06:19:58 51°13.661 2°55.96 -999 12 10.7 103150 33
2010-05-20 06:20:03 51°13.661 2°55.96 -999 9 10.7 103150 33
2010-05-20 06:20:08 51°13.661 2°55.96 -999 10 10.7 103150 33
2010-05-20 06:20:13 51°13.661 2°55.96 -999 9 10.7 103150 33
2010-05-20 06:20:18 51°13.661 2°55.96 -999 16 10.7 103150 33
2010-05-20 06:20:23 51°13.661 2°55.96 -999 13 10.7 103150 33
2010-05-20 06:20:28 51°13.661 2°55.96 -999 14 10.7 103150 33
2010-05-20 06:20:33 51°13.661 2°55.96 -999 17 10.7 103150 33
2010-05-20 06:20:38 51°13.661 2°55.96 -999 16 10.7 103160 33
2010-05-20 06:20:43 51°13.661 2°55.96 -999 17 10.7 103160 33
2010-05-20 06:20:48 51°13.661 2°55.96 -999 9 10.7 103150 33
2010-05-20 06:20:53 51°13.661 2°55.96 -999 9 10.7 103150 33
2010-05-20 06:20:58 51°13.661 2°55.96 -999 10 10.7 103150 33
2010-05-20 06:21:03 51°13.661 2°55.96 -999 14 10.7 103150 33
2010-05-20 06:21:08 51°13.661 2°55.96 -999 19 10.7 103150 33
2010-05-20 06:21:13 51°13.661 2°55.96 -999 15 10.7 103150 33
2010-05-20 06:21:17 51°13.661 2°55.96 -999 15 10.7 103160 33
2010-05-20 06:21:24 51°13.661 2°55.96 -999 15 10.7 103160 33
2010-05-20 06:21:29 51°13.661 2°55.96 -999 15 10.7 103160 33
2010-05-20 06:21:34 51°13.661 2°55.96 -999 15 10.7 103160 33
2010-05-20 06:21:39 51°13.661 2°55.96 -999 15 10.7 103160 33
2010-05-20 06:21:44 51°13.661 2°55.96 -999 15 -999 -999 -999
2010-05-20 06:21:49 51°13.661 2°55.96 -999 -999 -999 -999 -999
2010-05-20 06:21:54 51°13.661 2°55.96 -999 -999 -999 -999 -999
2010-05-20 06:21:59 51°13.661 2°55.96 -999 12 -999 -999 -999
2010-05-20 06:22:04 51°13.661 2°55.96 -999 12 -999 -999 -999
2010-05-20 06:22:09 51°13.662 2°55.96 -999 12 -999 -999 -999
2010-05-20 06:22:14 51°13.662 2°55.96 -999 14 -999 -999 -999
2010-05-20 06:22:19 51°13.662 2°55.96 -999 11 -999 -999 -999
2010-05-20 06:22:24 51°13.662 2°55.96 -999 11 10.7 -999 19
2010-05-20 06:22:29 51°13.662 2°55.96 -999 10 10.7 -999 19
2010-05-20 06:22:34 51°13.662 2°55.96 -999 11 10.7 -999 34
2010-05-20 06:22:39 51°13.662 2°55.96 -999 14 10.7 -999 34
2010-05-20 06:22:44 51°13.662 2°55.96 -999 14 10.7 103150 34
2010-05-20 06:22:49 51°13.662 2°55.96 -999 13 10.7 103150 34
2010-05-20 06:22:54 51°13.662 2°55.96 -999 7 10.7 103150 33
2010-05-20 06:22:59 51°13.662 2°55.96 -999 15 10.7 103150 33
2010-05-20 06:23:04 51°13.662 2°55.96 -999 15 10.7 103150 33
2010-05-20 06:23:09 51°13.662 2°55.96 -999 9 10.7 103150 33
2010-05-20 06:23:14 51°13.662 2°55.96 -999 6 10.7 103150 33
2010-05-20 06:23:19 51°13.662 2°55.96 -999 8 10.7 103150 33
2010-05-20 06:23:24 51°13.662 2°55.96 -999 12 10.7 103150 33
2010-05-20 06:23:29 51°13.662 2°55.959 -999 10 10.7 103150 33
2010-05-20 06:23:34 51°13.662 2°55.959 -999 357 10.7 103150 33
2010-05-20 06:23:39 51°13.662 2°55.959 -999 2 10.7 103150 33
2010-05-20 06:23:44 51°13.662 2°55.959 -999 1 10.7 103150 33
2010-05-20 06:23:49 51°13.662 2°55.959 -999 24 10.7 103150 33
2010-05-20 06:23:54 51°13.662 2°55.959 -999 19 10.7 103150 33
2010-05-20 06:23:59 51°13.662 2°55.959 -999 18 10.7 103150 33
2010-05-20 06:24:04 51°13.662 2°55.959 -999 16 10.7 103150 33
2010-05-20 06:24:09 51°13.662 2°55.959 -999 9 10.7 103150 33
2010-05-20 06:24:14 51°13.662 2°55.959 -999 3 10.7 103150 32
2010-05-20 06:24:19 51°13.663 2°55.959 -999 21 10.7 103150 32
2010-05-20 06:24:24 51°13.663 2°55.959 -999 18 10.7 103150 33
2010-05-20 06:24:29 51°13.663 2°55.959 -999 9 10.7 103150 33
2010-05-20 06:24:34 51°13.663 2°55.959 -999 6 10.7 103150 33
2010-05-20 06:24:39 51°13.663 2°55.959 -999 358 10.7 103150 33
2010-05-20 06:24:44 51°13.663 2°55.959 -999 12 10.7 103150 33
2010-05-20 06:24:49 51°13.663 2°55.959 -999 3 10.7 103150 33
2010-05-20 06:24:54 51°13.663 2°55.959 -999 3 10.7 103160 33
2010-05-20 06:24:59 51°13.663 2°55.959 -999 360 10.7 103160 33
2010-05-20 06:25:04 51°13.663 2°55.959 -999 1 10.8 103150 33
2010-05-20 06:25:09 51°13.663 2°55.959 -999 2 10.8 103150 33
2010-05-20 06:25:14 51°13.663 2°55.959 -999 4 10.8 103150 33
2010-05-20 06:25:19 51°13.663 2°55.959 -999 5 10.8 103150 33
2010-05-20 06:25:24 51°13.663 2°55.959 -999 359 10.8 103150 33
2010-05-20 06:25:29 51°13.663 2°55.959 -999 359 10.8 103150 33
2010-05-20 06:25:34 51°13.663 2°55.959 -999 10 10.8 103150 33
2010-05-20 06:25:39 51°13.663 2°55.959 -999 2 10.8 103150 33
2010-05-20 06:25:44 51°13.663 2°55.959 -999 8 10.8 103150 33
2010-05-20 06:25:49 51°13.663 2°55.959 -999 3 10.8 103150 33
2010-05-20 06:25:54 51°13.663 2°55.959 -999 13 10.8 103150 33
2010-05-20 06:25:59 51°13.663 2°55.959 -999 16 10.8 103150 33
2010-05-20 06:26:04 51°13.663 2°55.959 -999 10 10.8 103150 33
2010-05-20 06:26:09 51°13.664 2°55.959 -999 13 10.8 103150 33
2010-05-20 06:26:14 51°13.664 2°55.959 -999 12 10.8 103150 33
2010-05-20 06:26:19 51°13.664 2°55.959 -999 13 10.8 103150 33
2010-05-20 06:26:24 51°13.664 2°55.959 -999 13 10.8 103150 33
2010-05-20 06:26:29 51°13.664 2°55.959 -999 4 10.8 103150 33
2010-05-20 06:26:34 51°13.664 2°55.959 -999 358 10.9 103150 33
2010-05-20 06:26:39 51°13.664 2°55.959 -999 359 10.9 103150 33
2010-05-20 06:26:44 51°13.664 2°55.959 -999 12 10.9 103150 33
2010-05-20 06:26:49 51°13.664 2°55.959 -999 1 10.9 103150 33
2010-05-20 06:26:54 51°13.664 2°55.959 -999 359 10.9 103150 32
2010-05-20 06:26:59 51°13.664 2°55.959 -999 1 10.9 103150 32
2010-05-20 06:27:04 51°13.664 2°55.959 -999 3 10.9 103150 33
2010-05-20 06:27:09 51°13.664 2°55.959 -999 353 10.9 103150 33
2010-05-20 06:27:14 51°13.664 2°55.959 -999 352 10.9 103160 33
2010-05-20 06:27:19 51°13.664 2°55.959 -999 359 10.9 103160 33
2010-05-20 06:27:24 51°13.664 2°55.959 -999 13 10.9 103150 33
2010-05-20 06:27:29 51°13.664 2°55.959 -999 2 10.9 103150 33
2010-05-20 06:27:34 51°13.664 2°55.959 -999 3 10.9 103160 33
2010-05-20 06:27:39 51°13.664 2°55.959 -999 2 10.9 103160 33
2010-05-20 06:27:44 51°13.664 2°55.959 -999 -999 11 103150 33
2010-05-20 06:27:49 51°13.664 2°55.959 -999 282 11 103150 33
2010-05-20 06:27:54 51°13.664 2°55.959 -999 352 11 103150 33
2010-05-20 06:27:59 51°13.664 2°55.959 -999 282 11 103150 33
2010-05-20 06:28:04 51°13.664 2°55.959 -999 348 11 103150 33
2010-05-20 06:28:09 51°13.664 2°55.959 -999 353 11 103150 33
2010-05-20 06:28:14 51°13.664 2°55.959 -999 353 11 103150 33
2010-05-20 06:28:19 51°13.664 2°55.959 -999 352 11 103150 33
2010-05-20 06:28:24 51°13.663 2°55.959 -999 351 11 103150 33
2010-05-20 06:28:29 51°13.663 2°55.959 -999 282 11 103150 33
2010-05-20 06:28:34 51°13.663 2°55.959 -999 345 11 103150 33
2010-05-20 06:28:39 51°13.663 2°55.959 -999 282 11 103150 33
2010-05-20 06:28:44 51°13.663 2°55.959 -999 344 11 103150 33
2010-05-20 06:28:49 51°13.663 2°55.959 -999 348 11 103150 33
2010-05-20 06:28:54 51°13.663 2°55.959 -999 342 11 103150 33
2010-05-20 06:28:59 51°13.663 2°55.959 -999 282 11 103150 33
2010-05-20 06:29:04 51°13.663 2°55.959 -999 341 11 103150 33
2010-05-20 06:29:09 51°13.663 2°55.96 -999 282 11 103150 33
2010-05-20 06:29:14 51°13.663 2°55.96 -999 346 11.1 103150 33
2010-05-20 06:29:19 51°13.663 2°55.96 -999 350 11.1 103150 33
2010-05-20 06:29:24 51°13.663 2°55.96 -999 344 11 103150 33
2010-05-20 06:29:29 51°13.663 2°55.96 -999 282 11 103150 33
2010-05-20 06:29:34 51°13.663 2°55.96 -999 344 11.1 103150 32
2010-05-20 06:29:39 51°13.663 2°55.96 -999 282 11.1 103150 32
2010-05-20 06:29:44 51°13.663 2°55.96 -999 346 11.1 103150 33
2010-05-20 06:29:49 51°13.663 2°55.96 -999 282 11.1 103150 33
2010-05-20 06:29:54 51°13.663 2°55.96 -999 342 11.1 103150 33
2010-05-20 06:29:59 51°13.663 2°55.96 -999 282 11.1 103150 33
2010-05-20 06:30:04 51°13.663 2°55.96 -999 347 11.1 103150 33
2010-05-20 06:30:09 51°13.663 2°55.96 -999 282 11.1 103150 33
2010-05-20 06:30:14 51°13.663 2°55.96 -999 349 11.1 103150 33
2010-05-20 06:30:19 51°13.663 2°55.96 -999 282 11.1 103150 33
2010-05-20 06:30:24 51°13.663 2°55.96 -999 349 11.1 103150 33
2010-05-20 06:30:29 51°13.663 2°55.96 -999 351 11.1 103150 33
2010-05-20 06:30:34 51°13.663 2°55.96 -999 350 11.1 103150 33
2010-05-20 06:30:39 51°13.663 2°55.96 -999 282 11.1 103150 33
2010-05-20 06:30:44 51°13.663 2°55.96 -999 339 11.1 103150 33
2010-05-20 06:30:49 51°13.663 2°55.96 -999 282 11.1 103150 33
2010-05-20 06:30:54 51°13.663 2°55.96 -999 334 11.1 103150 33
2010-05-20 06:30:59 51°13.663 2°55.96 -999 282 11.1 103150 33
2010-05-20 06:31:04 51°13.663 2°55.96 -999 337 11.1 103150 33
2010-05-20 06:31:09 51°13.663 2°55.96 -999 282 11.1 103150 33
2010-05-20 06:31:14 51°13.663 2°55.96 -999 336 11.1 103150 33
2010-05-20 06:31:19 51°13.663 2°55.96 -999 282 11.1 103150 33
2010-05-20 06:31:24 51°13.663 2°55.96 -999 335 11.1 103150 33
2010-05-20 06:31:29 51°13.663 2°55.96 -999 282 11.1 103150 33
2010-05-20 06:31:34 51°13.663 2°55.96 -999 332 11.1 103150 33
2010-05-20 06:31:39 51°13.663 2°55.96 -999 282 11.1 103150 33
2010-05-20 06:31:44 51°13.663 2°55.96 -999 341 11.1 103150 33
2010-05-20 06:31:49 51°13.663 2°55.96 -999 282 11.1 103150 33
2010-05-20 06:31:54 51°13.663 2°55.96 -999 334 11.1 103150 33
2010-05-20 06:31:59 51°13.663 2°55.96 -999 282 11.1 103150 33
2010-05-20 06:32:04 51°13.663 2°55.96 -999 335 11.1 103150 33
2010-05-20 06:32:09 51°13.663 2°55.96 -999 282 11.1 103150 33
2010-05-20 06:32:14 51°13.663 2°55.959 -999 341 11.1 103150 32
2010-05-20 06:32:19 51°13.663 2°55.959 -999 282 11.1 103150 32
2010-05-20 06:32:24 51°13.663 2°55.959 -999 334 11.1 103150 33
2010-05-20 06:32:29 51°13.663 2°55.959 -999 282 11.1 103150 33
2010-05-20 06:32:34 51°13.663 2°55.959 -999 338 11.1 103150 33
2010-05-20 06:32:39 51°13.663 2°55.959 -999 282 11.1 103150 33
2010-05-20 06:32:44 51°13.663 2°55.959 -999 334 11.1 103150 33
2010-05-20 06:32:49 51°13.663 2°55.959 -999 282 11.1 103150 33
2010-05-20 06:32:54 51°13.663 2°55.959 -999 340 11.2 103150 33
2010-05-20 06:32:59 51°13.663 2°55.959 -999 282 11.2 103150 33
2010-05-20 06:33:04 51°13.663 2°55.959 -999 334 11.2 103150 33
2010-05-20 06:33:09 51°13.663 2°55.959 -999 282 11.2 103150 33
2010-05-20 06:33:14 51°13.663 2°55.959 -999 340 11.2 103150 33
2010-05-20 06:33:19 51°13.663 2°55.959 -999 282 11.2 103150 33
2010-05-20 06:33:24 51°13.663 2°55.959 -999 336 11.2 103150 33
2010-05-20 06:33:29 51°13.663 2°55.959 -999 282 11.2 103150 33
2010-05-20 06:33:34 51°13.663 2°55.959 -999 337 11.2 103150 33
2010-05-20 06:33:39 51°13.663 2°55.959 -999 282 11.2 103150 33
2010-05-20 06:33:44 51°13.663 2°55.959 -999 338 11.2 103150 33
2010-05-20 06:33:49 51°13.663 2°55.959 -999 282 11.2 103150 33
2010-05-20 06:33:54 51°13.663 2°55.959 -999 343 11.2 103150 33
2010-05-20 06:33:59 51°13.663 2°55.959 -999 282 11.2 103150 33
2010-05-20 06:34:04 51°13.663 2°55.959 -999 337 11.2 103150 33
2010-05-20 06:34:09 51°13.663 2°55.959 -999 282 11.2 103150 33
2010-05-20 06:34:14 51°13.663 2°55.959 -999 340 11.2 103150 33
2010-05-20 06:34:19 51°13.663 2°55.959 -999 282 11.2 103150 33
2010-05-20 06:34:24 51°13.663 2°55.959 -999 341 11.2 103150 33
2010-05-20 06:34:29 51°13.663 2°55.959 -999 282 11.2 103150 33
2010-05-20 06:34:34 51°13.663 2°55.959 -999 335 11.2 103150 33
2010-05-20 06:34:39 51°13.663 2°55.959 -999 282 11.2 103150 33
2010-05-20 06:34:44 51°13.663 2°55.959 -999 352 11.2 103150 33
2010-05-20 06:34:49 51°13.663 2°55.959 -999 352 11.2 103150 33
2010-05-20 06:34:54 51°13.663 2°55.959 -999 349 11.2 103150 32
2010-05-20 06:34:59 51°13.663 2°55.959 1 278 11.2 103150 32
2010-05-20 06:35:04 51°13.663 2°55.959 0.7 349 11.2 103150 33
2010-05-20 06:35:09 51°13.663 2°55.959 0.6 359 11.2 103150 33
2010-05-20 06:35:14 51°13.663 2°55.959 0.5 349 11.2 103150 33
2010-05-20 06:35:19 51°13.663 2°55.959 0.8 277 11.2 103150 33
2010-05-20 06:35:24 51°13.663 2°55.959 1 345 11.2 103150 32
2010-05-20 06:35:29 51°13.663 2°55.959 0.8 286 11.2 103150 32
2010-05-20 06:35:34 51°13.663 2°55.959 0.7 344 11.2 103150 33
2010-05-20 06:35:39 51°13.663 2°55.959 0.5 286 11.2 103150 33
2010-05-20 06:35:44 51°13.663 2°55.959 1.1 347 11.2 103150 34
2010-05-20 06:35:49 51°13.663 2°55.959 1.4 277 11.2 103150 34
2010-05-20 06:35:54 51°13.663 2°55.959 1.1 352 11.2 103150 33
2010-05-20 06:35:59 51°13.663 2°55.959 0.8 348 11.2 103150 33
2010-05-20 06:36:04 51°13.663 2°55.959 0.9 352 11.2 103150 33
2010-05-20 06:36:09 51°13.663 2°55.959 0.7 354 11.2 103150 33
2010-05-20 06:36:14 51°13.663 2°55.959 0.6 354 11.2 103150 32
2010-05-20 06:36:19 51°13.663 2°55.959 0.4 349 11.2 103150 32
2010-05-20 06:36:24 51°13.663 2°55.959 0.1 345 11.2 103150 34
2010-05-20 06:36:29 51°13.663 2°55.959 0.1 282 11.2 103150 34
2010-05-20 06:36:34 51°13.663 2°55.959 -999 344 11.2 103150 33
2010-05-20 06:36:39 51°13.663 2°55.959 -999 282 11.2 103150 33
2010-05-20 06:36:44 51°13.663 2°55.959 -999 332 11.2 103150 33
2010-05-20 06:36:49 51°13.663 2°55.959 -999 282 11.2 103150 33
2010-05-20 06:36:54 51°13.663 2°55.959 0.7 350 11.2 103150 33
2010-05-20 06:36:59 51°13.663 2°55.959 1 283 11.2 103150 33
2010-05-20 06:37:04 51°13.663 2°55.959 0.6 343 11.2 103150 33
2010-05-20 06:37:09 51°13.663 2°55.959 0.1 282 11.2 103150 33
2010-05-20 06:37:14 51°13.663 2°55.959 0.1 344 11.2 103150 32
2010-05-20 06:37:19 51°13.663 2°55.959 0.1 348 11.2 103150 32
2010-05-20 06:37:24 51°13.663 2°55.959 0.1 349 11.2 103150 33
2010-05-20 06:37:29 51°13.663 2°55.959 -999 282 11.2 103150 33
2010-05-20 06:37:34 51°13.663 2°55.959 -999 335 11.2 103150 32
2010-05-20 06:37:39 51°13.663 2°55.959 -999 282 11.2 103150 32
2010-05-20 06:37:44 51°13.663 2°55.959 -999 341 11.2 103150 33
2010-05-20 06:37:49 51°13.663 2°55.959 -999 282 11.2 103150 33
2010-05-20 06:37:54 51°13.663 2°55.959 -999 346 11.2 103150 33
2010-05-20 06:37:59 51°13.663 2°55.959 -999 282 11.2 103150 33
2010-05-20 06:38:04 51°13.663 2°55.959 -999 344 11.2 103150 33
2010-05-20 06:38:09 51°13.662 2°55.959 -999 282 11.2 103150 33
2010-05-20 06:38:14 51°13.662 2°55.959 -999 347 11.2 103150 33
2010-05-20 06:38:19 51°13.662 2°55.959 -999 350 11.2 103150 33
2010-05-20 06:38:24 51°13.662 2°55.959 -999 349 11.2 103150 33
2010-05-20 06:38:29 51°13.662 2°55.959 -999 282 11.2 103150 33
2010-05-20 06:38:34 51°13.662 2°55.959 -999 344 11.2 103150 33
2010-05-20 06:38:39 51°13.662 2°55.959 -999 282 11.2 103150 33
2010-05-20 06:38:44 51°13.662 2°55.959 -999 345 11.2 103150 33
2010-05-20 06:38:49 51°13.662 2°55.959 -999 282 11.2 103150 33
2010-05-20 06:38:54 51°13.662 2°55.959 -999 349 11.2 103150 33
2010-05-20 06:38:59 51°13.662 2°55.959 -999 282 11.2 103150 33
2010-05-20 06:39:04 51°13.662 2°55.959 -999 344 11.2 103150 33
2010-05-20 06:39:09 51°13.662 2°55.959 -999 282 11.2 103150 33
2010-05-20 06:39:14 51°13.662 2°55.959 -999 339 11.2 103150 33
2010-05-20 06:39:19 51°13.662 2°55.959 -999 282 11.2 103150 33
2010-05-20 06:39:24 51°13.662 2°55.959 -999 343 11.2 103150 33
2010-05-20 06:39:29 51°13.662 2°55.959 -999 282 11.2 103150 33
2010-05-20 06:39:34 51°13.662 2°55.959 -999 341 11.2 103150 33
2010-05-20 06:39:39 51°13.662 2°55.959 -999 282 11.2 103150 33
2010-05-20 06:39:44 51°13.662 2°55.959 -999 348 11.2 103150 33
2010-05-20 06:39:49 51°13.662 2°55.959 -999 348 11.2 103150 33
2010-05-20 06:39:54 51°13.662 2°55.959 -999 350 11.2 103150 33
2010-05-20 06:39:59 51°13.662 2°55.959 -999 282 11.2 103150 33
2010-05-20 06:40:04 51°13.662 2°55.959 -999 345 11.2 103150 33
2010-05-20 06:40:09 51°13.662 2°55.959 -999 282 11.2 103150 33
2010-05-20 06:40:14 51°13.662 2°55.959 -999 346 11.2 103150 32
2010-05-20 06:40:19 51°13.662 2°55.959 -999 282 11.2 103150 32
2010-05-20 06:40:24 51°13.662 2°55.959 -999 347 11.2 103150 33
2010-05-20 06:40:29 51°13.662 2°55.959 -999 282 11.2 103150 33
2010-05-20 06:40:34 51°13.661 2°55.959 -999 342 11.2 103150 33
2010-05-20 06:40:39 51°13.661 2°55.959 -999 350 11.2 103150 33
2010-05-20 06:40:44 51°13.661 2°55.959 -999 354 11.2 103150 33
2010-05-20 06:40:49 51°13.661 2°55.959 -999 351 11.2 103150 33
2010-05-20 06:40:54 51°13.661 2°55.959 -999 356 11.2 103150 34
2010-05-20 06:40:59 51°13.661 2°55.959 -999 356 11.2 103150 34
2010-05-20 06:41:04 51°13.661 2°55.959 -999 349 11.2 103150 34
2010-05-20 06:41:09 51°13.661 2°55.959 -999 358 11.2 103150 34
2010-05-20 06:41:14 51°13.661 2°55.959 -999 351 11.3 103150 33
2010-05-20 06:41:19 51°13.661 2°55.959 -999 282 11.3 103150 33
2010-05-20 06:41:24 51°13.661 2°55.959 -999 341 11.2 103150 33
2010-05-20 06:41:29 51°13.661 2°55.958 -999 282 11.2 103150 33
2010-05-20 06:41:34 51°13.661 2°55.959 -999 343 11.2 103150 33
2010-05-20 06:41:39 51°13.661 2°55.959 -999 282 11.2 103150 33
2010-05-20 06:41:44 51°13.661 2°55.959 -999 348 11.2 103150 33
2010-05-20 06:41:49 51°13.661 2°55.959 -999 282 11.2 103150 33
2010-05-20 06:41:54 51°13.661 2°55.959 -999 349 11.2 103150 33
2010-05-20 06:41:59 51°13.661 2°55.959 -999 350 11.2 103150 33
2010-05-20 06:42:04 51°13.661 2°55.959 -999 355 11.2 103150 33
2010-05-20 06:42:09 51°13.661 2°55.959 -999 355 11.2 103150 33
2010-05-20 06:42:14 51°13.661 2°55.959 -999 355 11.2 103150 33
2010-05-20 06:42:19 51°13.661 2°55.958 -999 350 11.2 103150 33
2010-05-20 06:42:24 51°13.661 2°55.958 -999 349 11.2 103150 33
2010-05-20 06:42:29 51°13.661 2°55.958 -999 352 11.2 103150 33
2010-05-20 06:42:34 51°13.661 2°55.958 -999 353 11.2 103150 33
2010-05-20 06:42:39 51°13.662 2°55.958 -999 353 11.2 103150 33
2010-05-20 06:42:44 51°13.662 2°55.958 -999 351 11.2 103150 34
2010-05-20 06:42:49 51°13.662 2°55.958 -999 355 11.2 103150 34
2010-05-20 06:42:54 51°13.662 2°55.958 -999 352 11.3 103150 32
2010-05-20 06:42:59 51°13.662 2°55.958 -999 349 11.3 103150 32
2010-05-20 06:43:04 51°13.662 2°55.958 -999 350 11.3 103150 34
2010-05-20 06:43:09 51°13.662 2°55.958 -999 349 11.3 103150 34
2010-05-20 06:43:14 51°13.662 2°55.958 -999 358 11.3 103150 34
2010-05-20 06:43:19 51°13.662 2°55.958 -999 351 11.3 103150 34
2010-05-20 06:43:24 51°13.662 2°55.958 -999 348 11.3 103150 34
2010-05-20 06:43:28 51°13.662 2°55.958 -999 351 11.3 103150 34
2010-05-20 06:43:33 51°13.662 2°55.958 -999 358 11.3 103150 33
2010-05-20 06:43:38 51°13.662 2°55.958 -999 355 11.3 103150 33
2010-05-20 06:43:44 51°13.662 2°55.958 -999 358 11.3 103150 34
2010-05-20 06:43:49 51°13.662 2°55.958 -999 356 11.3 103150 34
2010-05-20 06:43:54 51°13.662 2°55.959 -999 346 11.3 103150 33
2010-05-20 06:43:58 51°13.662 2°55.959 -999 282 11.3 103150 33
2010-05-20 06:44:03 51°13.662 2°55.959 -999 349 11.3 103150 33
2010-05-20 06:44:09 51°13.662 2°55.959 -999 282 11.3 103150 33
2010-05-20 06:44:14 51°13.662 2°55.959 -999 347 11.3 103150 33
2010-05-20 06:44:18 51°13.662 2°55.959 -999 349 11.3 103150 33
2010-05-20 06:44:23 51°13.662 2°55.958 -999 344 11.3 103150 33
2010-05-20 06:44:29 51°13.662 2°55.958 -999 282 11.3 103150 33
2010-05-20 06:44:34 51°13.662 2°55.958 -999 343 11.4 103150 34
2010-05-20 06:44:39 51°13.662 2°55.958 -999 282 11.4 103150 34
2010-05-20 06:44:44 51°13.662 2°55.959 -999 345 11.4 103150 34
2010-05-20 06:44:49 51°13.662 2°55.959 -999 282 11.4 103150 34
2010-05-20 06:44:54 51°13.662 2°55.959 -999 343 11.4 103150 34
2010-05-20 06:44:59 51°13.662 2°55.959 -999 282 11.4 103150 34
2010-05-20 06:45:04 51°13.662 2°55.959 -999 343 11.4 103160 34
2010-05-20 06:45:09 51°13.662 2°55.959 -999 282 11.4 103160 34
2010-05-20 06:45:14 51°13.662 2°55.959 -999 342 11.4 103160 34
2010-05-20 06:45:19 51°13.662 2°55.959 -999 282 11.4 103160 34
2010-05-20 06:45:24 51°13.662 2°55.959 -999 347 11.4 103160 34
2010-05-20 06:45:29 51°13.662 2°55.959 -999 282 11.4 103160 34
2010-05-20 06:45:34 51°13.662 2°55.959 -999 342 11.4 103160 32
2010-05-20 06:45:39 51°13.662 2°55.959 -999 282 11.4 103160 32
2010-05-20 06:45:44 51°13.662 2°55.959 -999 349 11.5 103160 34
2010-05-20 06:45:49 51°13.662 2°55.959 -999 349 11.5 103160 34
2010-05-20 06:45:54 51°13.662 2°55.959 -999 350 11.5 103160 34
2010-05-20 06:45:59 51°13.662 2°55.959 -999 352 11.5 103160 34
2010-05-20 06:46:04 51°13.662 2°55.959 -999 348 11.5 103160 34
2010-05-20 06:46:09 51°13.662 2°55.959 -999 351 11.5 103160 34
2010-05-20 06:46:14 51°13.662 2°55.959 -999 347 11.6 103160 34
2010-05-20 06:46:19 51°13.662 2°55.959 -999 350 11.6 103160 34
2010-05-20 06:46:24 51°13.662 2°55.959 -999 344 11.6 103160 34
2010-05-20 06:46:29 51°13.662 2°55.959 -999 282 11.6 103160 34
2010-05-20 06:46:34 51°13.662 2°55.959 -999 2 11.6 103160 34
2010-05-20 06:46:39 51°13.662 2°55.959 -999 358 11.6 103160 34
2010-05-20 06:46:44 51°13.663 2°55.959 -999 336 11.6 103160 34
2010-05-20 06:46:49 51°13.663 2°55.959 -999 282 11.6 103160 34
2010-05-20 06:46:54 51°13.663 2°55.959 -999 346 11.6 103160 34
2010-05-20 06:46:59 51°13.663 2°55.959 -999 282 11.6 103160 34
2010-05-20 06:47:04 51°13.663 2°55.959 -999 354 11.7 103160 34
2010-05-20 06:47:09 51°13.663 2°55.959 -999 282 11.7 103160 34
2010-05-20 06:47:14 51°13.663 2°55.959 -999 347 11.7 103160 33
2010-05-20 06:47:19 51°13.663 2°55.959 -999 282 11.7 103160 33
2010-05-20 06:47:24 51°13.663 2°55.959 -999 347 11.7 103160 34
2010-05-20 06:47:29 51°13.663 2°55.959 -999 282 11.7 103160 34
2010-05-20 06:47:34 51°13.663 2°55.959 -999 348 11.7 103160 34
2010-05-20 06:47:39 51°13.663 2°55.959 -999 348 11.7 103160 34
2010-05-20 06:47:44 51°13.663 2°55.959 -999 343 11.8 103160 34
2010-05-20 06:47:49 51°13.663 2°55.959 -999 282 11.8 103160 34
2010-05-20 06:47:54 51°13.663 2°55.959 -999 344 11.8 103160 34
2010-05-20 06:47:59 51°13.663 2°55.959 -999 348 11.8 103160 34
2010-05-20 06:48:04 51°13.663 2°55.959 -999 354 11.8 103170 34
2010-05-20 06:48:09 51°13.663 2°55.959 -999 356 11.8 103170 34
2010-05-20 06:48:14 51°13.663 2°55.959 -999 357 11.8 103170 33
2010-05-20 06:48:19 51°13.663 2°55.959 -999 357 11.8 103170 33
2010-05-20 06:48:24 51°13.663 2°55.959 -999 355 11.8 103170 34
2010-05-20 06:48:29 51°13.663 2°55.959 -999 355 11.8 103170 34
2010-05-20 06:48:34 51°13.663 2°55.959 -999 353 11.8 103160 34
2010-05-20 06:48:39 51°13.663 2°55.959 -999 351 11.8 103160 34
2010-05-20 06:48:44 51°13.663 2°55.959 -999 351 11.9 103170 34
2010-05-20 06:48:49 51°13.663 2°55.959 -999 351 11.9 103170 34
2010-05-20 06:48:54 51°13.663 2°55.959 -999 358 11.9 103170 34
2010-05-20 06:48:59 51°13.663 2°55.959 -999 358 11.9 103170 34
2010-05-20 06:49:04 51°13.663 2°55.959 -999 13 11.9 103170 34
2010-05-20 06:49:09 51°13.663 2°55.959 -999 13 11.9 103170 34
2010-05-20 06:49:14 51°13.663 2°55.959 -999 15 11.9 103160 34
2010-05-20 06:49:19 51°13.663 2°55.959 -999 17 11.9 103160 34
2010-05-20 06:49:24 51°13.663 2°55.959 -999 12 11.9 103170 34
2010-05-20 06:49:29 51°13.663 2°55.959 -999 6 11.9 103170 34
2010-05-20 06:49:34 51°13.663 2°55.959 -999 357 11.9 103170 34
2010-05-20 06:49:39 51°13.663 2°55.959 -999 282 11.9 103170 34
2010-05-20 06:49:44 51°13.663 2°55.959 -999 8 11.9 103170 34
2010-05-20 06:49:49 51°13.663 2°55.959 -999 4 11.9 103170 34
2010-05-20 06:49:54 51°13.663 2°55.959 -999 5 11.9 103170 34
2010-05-20 06:49:59 51°13.663 2°55.959 -999 5 11.9 103170 34
2010-05-20 06:50:04 51°13.663 2°55.959 -999 5 11.9 103160 34
2010-05-20 06:50:09 51°13.663 2°55.959 -999 5 11.9 103160 34
2010-05-20 06:50:14 51°13.663 2°55.959 -999 5 11.9 103160 34
2010-05-20 06:50:19 51°13.663 2°55.959 -999 357 11.9 103160 34
2010-05-20 06:50:24 51°13.663 2°55.959 -999 348 11.9 103160 34
2010-05-20 06:50:29 51°13.663 2°55.959 -999 350 11.9 103160 34
2010-05-20 06:50:34 51°13.663 2°55.959 -999 350 11.9 103170 34
2010-05-20 06:50:39 51°13.663 2°55.959 -999 349 11.9 103170 34
2010-05-20 06:50:44 51°13.663 2°55.959 -999 351 11.9 103170 34
2010-05-20 06:50:49 51°13.663 2°55.959 -999 349 11.9 103170 34
2010-05-20 06:50:54 51°13.663 2°55.959 -999 349 11.9 103170 32
2010-05-20 06:50:59 51°13.663 2°55.959 -999 282 11.9 103170 32
2010-05-20 06:51:04 51°13.663 2°55.959 -999 347 11.9 103160 34
2010-05-20 06:51:09 51°13.663 2°55.959 -999 282 11.9 103160 34
2010-05-20 06:51:14 51°13.663 2°55.959 -999 347 11.9 103170 34
2010-05-20 06:51:19 51°13.663 2°55.959 -999 349 11.9 103170 34
2010-05-20 06:51:24 51°13.663 2°55.959 -999 349 11.9 103160 34
2010-05-20 06:51:29 51°13.663 2°55.959 -999 349 11.9 103160 34
2010-05-20 06:51:34 51°13.663 2°55.959 -999 345 11.9 103160 34
2010-05-20 06:51:39 51°13.663 2°55.959 -999 282 11.9 103160 34
2010-05-20 06:51:44 51°13.663 2°55.959 -999 345 11.9 103160 34
2010-05-20 06:51:49 51°13.663 2°55.959 -999 282 11.9 103160 34
2010-05-20 06:51:54 51°13.663 2°55.959 -999 339 11.9 103170 34
2010-05-20 06:51:59 51°13.663 2°55.959 -999 282 11.9 103170 34
2010-05-20 06:52:04 51°13.663 2°55.959 -999 344 11.9 103170 34
2010-05-20 06:52:09 51°13.663 2°55.959 -999 282 11.9 103170 34
2010-05-20 06:52:14 51°13.663 2°55.959 -999 343 11.9 103170 34
2010-05-20 06:52:19 51°13.663 2°55.959 -999 282 11.9 103170 34
2010-05-20 06:52:24 51°13.663 2°55.96 -999 339 11.9 103170 34
2010-05-20 06:52:29 51°13.663 2°55.96 -999 282 11.9 103170 34
2010-05-20 06:52:34 51°13.663 2°55.96 -999 341 11.9 103170 34
2010-05-20 06:52:39 51°13.663 2°55.96 -999 282 11.9 103170 34
2010-05-20 06:52:44 51°13.663 2°55.96 -999 343 11.9 103170 34
2010-05-20 06:52:49 51°13.663 2°55.96 -999 282 11.9 103170 34
2010-05-20 06:52:54 51°13.663 2°55.96 -999 342 11.9 103170 34
2010-05-20 06:52:59 51°13.663 2°55.96 -999 282 11.9 103170 34
2010-05-20 06:53:04 51°13.663 2°55.96 -999 342 11.9 103170 34
2010-05-20 06:53:09 51°13.663 2°55.96 -999 282 11.9 103170 34
2010-05-20 06:53:14 51°13.663 2°55.96 -999 340 11.9 103170 34
2010-05-20 06:53:19 51°13.663 2°55.96 -999 282 11.9 103170 34
2010-05-20 06:53:24 51°13.663 2°55.96 -999 341 11.9 103170 34
2010-05-20 06:53:29 51°13.663 2°55.96 -999 282 11.9 103170 34
2010-05-20 06:53:34 51°13.663 2°55.96 -999 341 11.9 103170 34
2010-05-20 06:53:39 51°13.663 2°55.96 -999 282 12 103170 33
2010-05-20 06:53:44 51°13.663 2°55.96 -999 341 12 103170 34
2010-05-20 06:53:49 51°13.663 2°55.96 -999 282 12 103170 34
2010-05-20 06:53:54 51°13.663 2°55.96 -999 343 12 103170 34
2010-05-20 06:53:59 51°13.663 2°55.96 -999 282 12 103170 34
2010-05-20 06:54:04 51°13.663 2°55.96 -999 334 12 103170 34
2010-05-20 06:54:09 51°13.663 2°55.96 -999 282 12 103170 34
2010-05-20 06:54:14 51°13.663 2°55.96 -999 329 12 103170 34
2010-05-20 06:54:19 51°13.663 2°55.96 -999 282 12 103170 34
2010-05-20 06:54:24 51°13.663 2°55.96 -999 332 12 103170 34
2010-05-20 06:54:29 51°13.663 2°55.96 -999 282 12 103170 34
2010-05-20 06:54:34 51°13.663 2°55.96 -999 346 12 103170 34
2010-05-20 06:54:39 51°13.663 2°55.96 -999 282 12 103170 34
2010-05-20 06:54:44 51°13.663 2°55.96 -999 344 12 103170 34
2010-05-20 06:54:49 51°13.663 2°55.96 -999 282 12 103170 34
2010-05-20 06:54:54 51°13.663 2°55.96 -999 340 12 103170 34
2010-05-20 06:54:59 51°13.663 2°55.96 -999 282 12 103170 34
2010-05-20 06:55:04 51°13.663 2°55.96 -999 344 12 103170 34
2010-05-20 06:55:09 51°13.663 2°55.96 -999 282 12 103170 34
2010-05-20 06:55:14 51°13.663 2°55.96 -999 340 12 103170 34
2010-05-20 06:55:19 51°13.663 2°55.96 -999 282 12 103170 34
2010-05-20 06:55:24 51°13.663 2°55.96 -999 342 12 103170 34
2010-05-20 06:55:29 51°13.663 2°55.96 -999 282 12 103170 34
2010-05-20 06:55:34 51°13.663 2°55.959 -999 337 12 103170 34
2010-05-20 06:55:39 51°13.663 2°55.959 -999 282 12 103170 34
2010-05-20 06:55:44 51°13.663 2°55.959 -999 346 12 103170 34
2010-05-20 06:55:49 51°13.663 2°55.959 -999 282 12 103170 34
2010-05-20 06:55:54 51°13.663 2°55.959 -999 342 12 103170 34
2010-05-20 06:55:59 51°13.663 2°55.959 -999 282 12 103170 34
2010-05-20 06:56:04 51°13.663 2°55.959 -999 344 12 103170 34
2010-05-20 06:56:09 51°13.664 2°55.959 -999 282 12 103170 34
2010-05-20 06:56:14 51°13.664 2°55.959 -999 343 12 103170 33
2010-05-20 06:56:19 51°13.664 2°55.959 -999 282 12 103170 33
2010-05-20 06:56:24 51°13.664 2°55.959 -999 338 12 103170 34
2010-05-20 06:56:29 51°13.664 2°55.959 -999 282 12 103170 34
2010-05-20 06:56:34 51°13.664 2°55.959 -999 346 12 103170 34
2010-05-20 06:56:39 51°13.664 2°55.959 -999 282 12 103170 34
2010-05-20 06:56:44 51°13.664 2°55.959 -999 345 12 103170 34
2010-05-20 06:56:49 51°13.664 2°55.959 -999 282 12 103170 34
2010-05-20 06:56:54 51°13.664 2°55.959 -999 342 12 103170 34
2010-05-20 06:56:59 51°13.664 2°55.959 -999 282 12 103170 34
2010-05-20 06:57:04 51°13.664 2°55.959 -999 352 12 103170 34
2010-05-20 06:57:09 51°13.664 2°55.959 -999 349 12 103170 34
2010-05-20 06:57:14 51°13.664 2°55.959 -999 351 12 103170 34
2010-05-20 06:57:19 51°13.664 2°55.959 -999 350 12 103170 34
2010-05-20 06:57:24 51°13.664 2°55.959 -999 349 12 103170 34
2010-05-20 06:57:29 51°13.664 2°55.959 -999 349 12 103170 34
2010-05-20 06:57:34 51°13.664 2°55.959 -999 350 12 103170 34
2010-05-20 06:57:39 51°13.664 2°55.959 -999 353 12 103170 34
2010-05-20 06:57:44 51°13.664 2°55.959 -999 353 12 103170 34
2010-05-20 06:57:49 51°13.664 2°55.959 -999 350 12 103170 34
2010-05-20 06:57:54 51°13.664 2°55.959 -999 339 12 103160 34
2010-05-20 06:57:59 51°13.665 2°55.959 -999 282 12 103160 34
2010-05-20 06:58:04 51°13.665 2°55.959 -999 339 12 103170 34
2010-05-20 06:58:09 51°13.665 2°55.959 -999 282 12 103170 34
2010-05-20 06:58:14 51°13.665 2°55.959 -999 339 12 103170 34
2010-05-20 06:58:19 51°13.665 2°55.959 -999 282 12 103170 34
2010-05-20 06:58:24 51°13.665 2°55.959 -999 343 12 103170 34
2010-05-20 06:58:29 51°13.665 2°55.959 -999 282 12 103170 34
2010-05-20 06:58:34 51°13.665 2°55.959 -999 342 12 103170 34
2010-05-20 06:58:39 51°13.665 2°55.959 -999 282 12 103170 34
2010-05-20 06:58:44 51°13.665 2°55.959 -999 336 11.9 103170 34
2010-05-20 06:58:49 51°13.665 2°55.959 -999 348 11.9 103170 34
2010-05-20 06:58:54 51°13.665 2°55.959 -999 335 11.9 103170 34
2010-05-20 06:58:59 51°13.665 2°55.959 -999 282 11.9 103170 33
2010-05-20 06:59:04 51°13.665 2°55.959 -999 343 12 103170 34
2010-05-20 06:59:09 51°13.665 2°55.959 -999 282 12 103170 34
2010-05-20 06:59:14 51°13.665 2°55.959 -999 345 12 103170 34
2010-05-20 06:59:19 51°13.665 2°55.959 -999 282 12 103170 34
2010-05-20 06:59:24 51°13.665 2°55.959 -999 348 12 103170 34
2010-05-20 06:59:29 51°13.665 2°55.959 -999 282 12 103170 34
2010-05-20 06:59:34 51°13.665 2°55.959 -999 346 12 103170 34
2010-05-20 06:59:39 51°13.665 2°55.959 -999 282 12 103170 34
2010-05-20 06:59:44 51°13.665 2°55.959 -999 344 12 103170 34
2010-05-20 06:59:49 51°13.665 2°55.959 -999 282 12 103170 34
2010-05-20 06:59:54 51°13.665 2°55.959 -999 348 12 103170 34
2010-05-20 06:59:59 51°13.665 2°55.959 -999 356 12 103170 34
2010-05-20 07:00:04 51°13.665 2°55.959 -999 356 12 103170 34
2010-05-20 07:00:09 51°13.665 2°55.959 -999 357 12 103160 34
2010-05-20 07:00:14 51°13.665 2°55.959 -999 -999 12 103170 34
2010-05-20 07:00:19 51°13.665 2°55.959 -999 356 12 103170 34
2010-05-20 07:00:24 51°13.665 2°55.959 -999 357 12 103170 34
2010-05-20 07:00:29 51°13.665 2°55.959 -999 352 12 103170 34
2010-05-20 07:00:34 51°13.665 2°55.959 -999 346 12 103170 34
2010-05-20 07:00:39 51°13.665 2°55.959 -999 282 12 103170 34
2010-05-20 07:00:44 51°13.665 2°55.96 -999 348 12 103170 34
2010-05-20 07:00:49 51°13.665 2°55.96 -999 349 12 103170 34
2010-05-20 07:00:54 51°13.665 2°55.96 -999 349 12 103170 34
2010-05-20 07:00:59 51°13.665 2°55.96 -999 350 12 103170 34
2010-05-20 07:01:04 51°13.665 2°55.96 -999 351 12 103170 34
2010-05-20 07:01:09 51°13.665 2°55.96 -999 282 12 103170 34
2010-05-20 07:01:14 51°13.665 2°55.96 -999 348 12 103170 34
2010-05-20 07:01:19 51°13.665 2°55.96 -999 282 12 103170 34
2010-05-20 07:01:24 51°13.665 2°55.96 -999 348 12 103170 34
2010-05-20 07:01:29 51°13.665 2°55.96 -999 349 12 103170 34
2010-05-20 07:01:34 51°13.665 2°55.96 -999 348 12 103170 33
2010-05-20 07:01:39 51°13.665 2°55.96 -999 282 12 103170 33
2010-05-20 07:01:44 51°13.665 2°55.96 -999 348 12 103170 34
2010-05-20 07:01:49 51°13.665 2°55.96 -999 282 12 103170 34
2010-05-20 07:01:54 51°13.665 2°55.96 -999 347 12 103170 34
2010-05-20 07:01:59 51°13.665 2°55.96 -999 282 12 103170 34
2010-05-20 07:02:04 51°13.665 2°55.96 -999 348 12 103170 34
2010-05-20 07:02:09 51°13.665 2°55.96 -999 349 12 103170 34
2010-05-20 07:02:14 51°13.665 2°55.96 -999 349 12.1 103170 34
2010-05-20 07:02:19 51°13.665 2°55.959 -999 350 12.1 103170 34
2010-05-20 07:02:24 51°13.665 2°55.959 -999 350 12.1 103170 34
2010-05-20 07:02:29 51°13.665 2°55.959 -999 349 12.1 103170 34
2010-05-20 07:02:34 51°13.665 2°55.959 -999 346 12.1 103170 34
2010-05-20 07:02:39 51°13.665 2°55.959 -999 282 12.1 103170 34
2010-05-20 07:02:44 51°13.665 2°55.959 -999 347 12.1 103170 34
2010-05-20 07:02:49 51°13.665 2°55.959 -999 349 12.1 103170 34
2010-05-20 07:02:54 51°13.665 2°55.959 -999 348 12.1 103170 34
2010-05-20 07:02:59 51°13.665 2°55.959 -999 350 12.1 103170 34
2010-05-20 07:03:04 51°13.665 2°55.959 -999 345 12 103170 34
2010-05-20 07:03:09 51°13.665 2°55.959 -999 282 12 103170 34
2010-05-20 07:03:14 51°13.665 2°55.959 -999 349 12 103170 34
2010-05-20 07:03:19 51°13.665 2°55.959 -999 282 12 103170 34
2010-05-20 07:03:24 51°13.665 2°55.959 -999 344 12 103170 34
2010-05-20 07:03:29 51°13.665 2°55.959 -999 282 12 103170 34
2010-05-20 07:03:34 51°13.665 2°55.959 -999 346 12 103180 34
2010-05-20 07:03:39 51°13.665 2°55.959 -999 282 12 103180 34
2010-05-20 07:03:44 51°13.665 2°55.959 -999 346 12 103170 34
2010-05-20 07:03:49 51°13.665 2°55.959 -999 354 12 103170 34
2010-05-20 07:03:54 51°13.665 2°55.959 -999 353 12 103170 34
2010-05-20 07:03:59 51°13.665 2°55.959 -999 282 12 103170 34
2010-05-20 07:04:04 51°13.665 2°55.959 -999 348 12.1 103170 34
2010-05-20 07:04:09 51°13.665 2°55.96 -999 282 12.1 103170 34
2010-05-20 07:04:14 51°13.665 2°55.96 -999 348 12.1 103170 34
2010-05-20 07:04:19 51°13.664 2°55.96 -999 348 12.1 103170 33
2010-05-20 07:04:24 51°13.664 2°55.96 -999 346 12.1 103170 34
2010-05-20 07:04:29 51°13.664 2°55.96 -999 282 12.1 103170 34
2010-05-20 07:04:34 51°13.664 2°55.96 -999 348 12.1 103180 34
2010-05-20 07:04:39 51°13.664 2°55.96 -999 349 12.1 103180 34
2010-05-20 07:04:44 51°13.664 2°55.96 -999 350 12.1 103170 34
2010-05-20 07:04:49 51°13.664 2°55.96 -999 282 12.1 103170 34
2010-05-20 07:04:54 51°13.664 2°55.96 -999 346 12.1 103170 34
2010-05-20 07:04:59 51°13.664 2°55.96 -999 348 12.1 103170 34
2010-05-20 07:05:04 51°13.664 2°55.961 -999 351 12.1 103180 34
2010-05-20 07:05:09 51°13.663 2°55.961 -999 356 12.1 103180 34
2010-05-20 07:05:14 51°13.663 2°55.961 -999 355 12.1 103170 34
2010-05-20 07:05:19 51°13.663 2°55.961 -999 282 12.1 103170 34
2010-05-20 07:05:24 51°13.663 2°55.961 -999 3 12.1 103170 34
2010-05-20 07:05:29 51°13.663 2°55.961 -999 349 12.1 103180 34
2010-05-20 07:05:34 51°13.663 2°55.961 -999 357 12.1 103170 34
2010-05-20 07:05:39 51°13.663 2°55.961 -999 282 12.1 103170 34
2010-05-20 07:05:44 51°13.663 2°55.961 -999 351 12.1 103170 34
2010-05-20 07:05:49 51°13.663 2°55.961 -999 350 12.1 103170 34
2010-05-20 07:05:54 51°13.663 2°55.961 -999 352 12.1 103170 34
2010-05-20 07:05:59 51°13.663 2°55.961 -999 349 12.1 103170 34
2010-05-20 07:06:04 51°13.662 2°55.961 -999 350 12.1 103170 34
2010-05-20 07:06:09 51°13.662 2°55.961 -999 356 12.1 103170 34
2010-05-20 07:06:14 51°13.662 2°55.961 -999 356 12.1 103180 34
2010-05-20 07:06:19 51°13.662 2°55.961 -999 359 12.1 103180 34
2010-05-20 07:06:24 51°13.662 2°55.961 -999 352 12.1 103170 34
2010-05-20 07:06:29 51°13.662 2°55.961 -999 1 12.1 103170 34
2010-05-20 07:06:34 51°13.662 2°55.961 -999 3 12.1 103170 34
2010-05-20 07:06:39 51°13.662 2°55.961 -999 358 12.1 103170 34
2010-05-20 07:06:44 51°13.662 2°55.961 -999 360 12.1 103170 34
2010-05-20 07:06:49 51°13.662 2°55.961 -999 6 12.1 103170 34
2010-05-20 07:06:54 51°13.662 2°55.961 -999 9 12.1 103170 34
2010-05-20 07:06:59 51°13.662 2°55.961 -999 4 12.2 103170 33
2010-05-20 07:07:04 51°13.662 2°55.961 -999 356 12.1 103180 34
2010-05-20 07:07:09 51°13.662 2°55.961 -999 356 12.1 103180 34
2010-05-20 07:07:14 51°13.662 2°55.961 -999 349 12.2 103180 34
2010-05-20 07:07:19 51°13.662 2°55.961 -999 350 12.2 103180 34
2010-05-20 07:07:24 51°13.662 2°55.96 -999 353 12.2 103170 34
2010-05-20 07:07:29 51°13.662 2°55.96 -999 351 12.2 103170 34
2010-05-20 07:07:34 51°13.662 2°55.96 -999 355 12.2 103180 34
2010-05-20 07:07:39 51°13.662 2°55.96 -999 355 12.2 103180 34
2010-05-20 07:07:44 51°13.662 2°55.96 -999 351 12.2 103170 34
2010-05-20 07:07:49 51°13.662 2°55.96 -999 352 12.2 103170 34
2010-05-20 07:07:54 51°13.662 2°55.96 -999 352 12.2 103170 34
2010-05-20 07:07:59 51°13.663 2°55.96 -999 353 12.2 103170 34
2010-05-20 07:08:04 51°13.663 2°55.96 -999 349 12.2 103170 34
2010-05-20 07:08:09 51°13.663 2°55.96 -999 350 12.2 103170 34
2010-05-20 07:08:14 51°13.662 2°55.96 -999 353 12.2 103180 34
2010-05-20 07:08:19 51°13.662 2°55.96 -999 356 12.2 103180 34
2010-05-20 07:08:24 51°13.662 2°55.96 -999 354 12.2 103180 34
2010-05-20 07:08:29 51°13.663 2°55.96 -999 352 12.2 103170 34
2010-05-20 07:08:34 51°13.662 2°55.96 -999 356 12.2 103180 34
2010-05-20 07:08:39 51°13.663 2°55.96 -999 355 12.2 103180 34
2010-05-20 07:08:44 51°13.663 2°55.96 -999 357 12.3 103170 34
2010-05-20 07:08:49 51°13.663 2°55.96 -999 357 12.3 103170 34
2010-05-20 07:08:54 51°13.663 2°55.96 -999 357 12.3 103180 34
2010-05-20 07:08:59 51°13.663 2°55.96 -999 -999 12.3 103180 34
2010-05-20 07:09:04 51°13.663 2°55.96 -999 358 12.2 103170 34
2010-05-20 07:09:09 51°13.663 2°55.96 -999 359 12.2 103170 34
2010-05-20 07:09:14 51°13.663 2°55.96 -999 359 12.3 103170 34
2010-05-20 07:09:19 51°13.663 2°55.96 -999 359 12.3 103170 34
2010-05-20 07:09:24 51°13.663 2°55.96 -999 354 12.2 103170 34
2010-05-20 07:09:29 51°13.663 2°55.96 -999 1 12.2 103170 34
2010-05-20 07:09:34 51°13.663 2°55.96 -999 359 12.2 103170 34
2010-05-20 07:09:39 51°13.663 2°55.96 -999 4 12.3 103180 33
2010-05-20 07:09:44 51°13.663 2°55.96 -999 5 12.3 103170 34
2010-05-20 07:09:49 51°13.663 2°55.96 -999 4 12.3 103170 34
2010-05-20 07:09:54 51°13.663 2°55.96 -999 352 12.3 103180 34
2010-05-20 07:09:59 51°13.663 2°55.96 -999 354 12.3 103180 34
2010-05-20 07:10:04 51°13.663 2°55.96 -999 348 12.3 103180 34
2010-05-20 07:10:09 51°13.663 2°55.96 -999 353 12.3 103180 34
2010-05-20 07:10:14 51°13.663 2°55.96 -999 356 12.3 103170 34
2010-05-20 07:10:19 51°13.663 2°55.96 -999 359 12.3 103170 34
2010-05-20 07:10:24 51°13.663 2°55.96 -999 356 12.3 103170 34
2010-05-20 07:10:29 51°13.663 2°55.96 -999 1 12.3 103170 34
2010-05-20 07:10:34 51°13.663 2°55.96 -999 357 12.3 103180 34
2010-05-20 07:10:39 51°13.663 2°55.96 -999 360 12.3 103180 34
2010-05-20 07:10:44 51°13.663 2°55.96 -999 -999 12.3 103180 34
2010-05-20 07:10:49 51°13.663 2°55.96 -999 5 12.3 103170 34
2010-05-20 07:10:54 51°13.663 2°55.96 -999 2 12.3 103170 34
2010-05-20 07:10:59 51°13.663 2°55.96 -999 14 12.3 103170 34
2010-05-20 07:11:04 51°13.663 2°55.96 -999 17 12.3 103170 34
2010-05-20 07:11:09 51°13.663 2°55.96 -999 13 12.3 103170 34
2010-05-20 07:11:14 51°13.663 2°55.96 -999 13 12.3 103180 34
2010-05-20 07:11:19 51°13.663 2°55.96 -999 14 12.3 103180 34
2010-05-20 07:11:24 51°13.663 2°55.96 -999 15 12.3 103180 34
2010-05-20 07:11:29 51°13.663 2°55.96 -999 14 12.3 103180 34
2010-05-20 07:11:34 51°13.663 2°55.96 -999 15 12.3 103180 34
2010-05-20 07:11:39 51°13.663 2°55.96 -999 15 12.3 103180 34
2010-05-20 07:11:44 51°13.663 2°55.96 -999 11 12.3 103170 34
2010-05-20 07:11:49 51°13.663 2°55.96 -999 11 12.3 103170 34
2010-05-20 07:11:54 51°13.663 2°55.96 -999 23 12.3 103170 34
2010-05-20 07:11:59 51°13.663 2°55.96 -999 22 12.3 103170 34
2010-05-20 07:12:04 51°13.663 2°55.96 -999 358 12.3 103170 34
2010-05-20 07:12:09 51°13.663 2°55.961 -999 2 12.3 103170 34
2010-05-20 07:12:14 51°13.663 2°55.961 -999 353 12.3 103170 34
2010-05-20 07:12:19 51°13.663 2°55.961 -999 354 12.3 103180 33
2010-05-20 07:12:24 51°13.663 2°55.961 -999 355 12.4 103170 34
2010-05-20 07:12:29 51°13.663 2°55.961 -999 356 12.4 103170 34
2010-05-20 07:12:34 51°13.663 2°55.961 -999 356 12.4 103170 34
2010-05-20 07:12:39 51°13.663 2°55.961 -999 356 12.4 103170 34
2010-05-20 07:12:44 51°13.663 2°55.961 -999 356 12.4 103170 34
2010-05-20 07:12:49 51°13.663 2°55.961 -999 358 12.4 103170 34
2010-05-20 07:12:54 51°13.662 2°55.961 -999 354 12.4 103170 34
2010-05-20 07:12:59 51°13.662 2°55.961 -999 353 12.4 103170 34
2010-05-20 07:13:04 51°13.662 2°55.961 -999 354 12.4 103170 34
2010-05-20 07:13:09 51°13.662 2°55.961 -999 351 12.4 103170 34
2010-05-20 07:13:14 51°13.662 2°55.961 -999 350 12.4 103170 34
2010-05-20 07:13:19 51°13.662 2°55.961 -999 355 12.4 103170 34
2010-05-20 07:13:24 51°13.662 2°55.961 -999 357 12.4 103170 34
2010-05-20 07:13:29 51°13.662 2°55.961 -999 356 12.5 103170 34
2010-05-20 07:13:34 51°13.662 2°55.961 -999 350 12.5 103170 34
2010-05-20 07:13:39 51°13.662 2°55.961 -999 353 12.5 103170 34
2010-05-20 07:13:44 51°13.662 2°55.961 -999 346 12.5 103170 34
2010-05-20 07:13:49 51°13.662 2°55.962 -999 277 12.5 103170 34
2010-05-20 07:13:54 51°13.662 2°55.962 -999 5 12.5 103170 34
2010-05-20 07:13:59 51°13.662 2°55.962 -999 2 12.5 103170 34
2010-05-20 07:14:04 51°13.662 2°55.962 -999 352 12.5 103170 34
2010-05-20 07:14:09 51°13.662 2°55.962 -999 353 12.5 103170 34
2010-05-20 07:14:14 51°13.662 2°55.962 -999 9 12.5 103170 34
2010-05-20 07:14:19 51°13.662 2°55.962 -999 7 12.5 103170 34
2010-05-20 07:14:24 51°13.661 2°55.962 -999 355 12.6 103170 34
2010-05-20 07:14:29 51°13.662 2°55.962 -999 3 12.6 103170 34
2010-05-20 07:14:34 51°13.662 2°55.962 -999 1 12.6 103170 34
2010-05-20 07:14:38 51°13.662 2°55.962 0.1 3 12.6 103170 34
2010-05-20 07:14:43 51°13.662 2°55.962 0.1 2 12.6 103170 34
2010-05-20 07:14:48 51°13.662 2°55.962 0.4 20 12.6 103170 34
2010-05-20 07:14:53 51°13.662 2°55.962 0.2 11 12.6 103170 34
2010-05-20 07:14:58 51°13.662 2°55.962 0.1 16 12.6 103170 33
2010-05-20 07:15:02 51°13.661 2°55.962 0.1 9 12.6 103170 36
2010-05-20 07:15:07 51°13.661 2°55.962 0.1 15 12.6 103170 36
2010-05-20 07:15:12 51°13.661 2°55.962 0.1 14 12.6 103170 36
2010-05-20 07:15:18 51°13.661 2°55.962 -999 19 12.6 103170 34
2010-05-20 07:15:22 51°13.662 2°55.962 -999 18 12.6 103170 34
2010-05-20 07:15:27 51°13.662 2°55.962 -999 21 12.6 103170 34
2010-05-20 07:15:32 51°13.662 2°55.962 -999 23 12.6 103170 34
2010-05-20 07:15:37 51°13.662 2°55.962 -999 21 12.6 103170 34
2010-05-20 07:15:42 51°13.662 2°55.962 -999 353 12.6 103170 34
2010-05-20 07:15:46 51°13.662 2°55.962 0.6 354 12.6 103170 34
2010-05-20 07:15:51 51°13.662 2°55.962 0.8 3 12.6 103170 34
2010-05-20 07:15:56 51°13.662 2°55.962 0.4 359 12.6 103170 34
2010-05-20 07:16:01 51°13.661 2°55.962 0.2 359 12.6 103170 36
2010-05-20 07:16:06 51°13.661 2°55.962 0.1 354 12.6 103170 36
2010-05-20 07:16:10 51°13.661 2°55.962 -999 349 12.6 103170 36
2010-05-20 07:16:15 51°13.661 2°55.962 -999 354 12.7 103170 33
2010-05-20 07:16:20 51°13.661 2°55.962 -999 358 12.7 103170 33
2010-05-20 07:16:26 51°13.662 2°55.962 -999 2 12.7 103170 34
2010-05-20 07:16:30 51°13.662 2°55.962 -999 359 12.7 103170 34
2010-05-20 07:16:34 51°13.662 2°55.962 -999 1 12.7 103170 34
2010-05-20 07:16:40 51°13.662 2°55.962 -999 4 12.7 103170 34
2010-05-20 07:16:45 51°13.662 2°55.962 -999 1 12.7 103170 34
2010-05-20 07:16:50 51°13.662 2°55.962 -999 360 12.7 103170 34
2010-05-20 07:16:54 51°13.662 2°55.962 -999 351 12.7 103170 34
2010-05-20 07:17:00 51°13.662 2°55.962 -999 356 12.7 103170 34
2010-05-20 07:17:05 51°13.662 2°55.962 0.1 358 12.7 103170 34
2010-05-20 07:17:10 51°13.662 2°55.962 0.1 2 12.7 103170 34
2010-05-20 07:17:14 51°13.662 2°55.962 0.4 14 12.7 103170 34
2010-05-20 07:17:20 51°13.662 2°55.962 0.5 16 12.7 103170 34
2010-05-20 07:17:25 51°13.662 2°55.962 0.2 16 12.7 103170 34
2010-05-20 07:17:30 51°13.662 2°55.962 0.1 17 12.7 103170 34
2010-05-20 07:17:35 51°13.662 2°55.961 -999 14 12.7 103170 33
2010-05-20 07:17:40 51°13.662 2°55.961 0.1 13 12.7 103170 34
2010-05-20 07:17:45 51°13.662 2°55.961 0.7 16 12.7 103170 34
2010-05-20 07:17:50 51°13.662 2°55.961 0.4 16 12.7 103170 34
2010-05-20 07:17:55 51°13.662 2°55.961 0.3 -999 12.8 103170 34
2010-05-20 07:18:00 51°13.662 2°55.961 0.2 14 12.7 103170 35
2010-05-20 07:18:05 51°13.662 2°55.961 0.6 9 12.7 103170 35
2010-05-20 07:18:10 51°13.662 2°55.961 0.7 11 12.7 103170 35
2010-05-20 07:18:14 51°13.662 2°55.961 0.4 11 12.8 103170 34
2010-05-20 07:18:20 51°13.662 2°55.961 0.3 14 12.8 103170 34
2010-05-20 07:18:25 51°13.662 2°55.961 0.1 16 12.8 103170 34
2010-05-20 07:18:30 51°13.662 2°55.961 0.1 18 12.8 103170 33
2010-05-20 07:18:34 51°13.662 2°55.961 0.3 16 12.8 103170 33
2010-05-20 07:18:40 51°13.662 2°55.961 0.1 16 12.8 103170 33
2010-05-20 07:18:45 51°13.662 2°55.961 0.1 14 12.8 103170 34
2010-05-20 07:18:50 51°13.662 2°55.961 0.1 12 12.7 103170 34
2010-05-20 07:18:54 51°13.663 2°55.961 -999 15 12.7 103170 34
2010-05-20 07:19:00 51°13.663 2°55.961 -999 8 12.7 103170 34
2010-05-20 07:19:05 51°13.663 2°55.961 0.9 3 12.7 103170 34
2010-05-20 07:19:10 51°13.663 2°55.961 1 4 12.7 103170 34
2010-05-20 07:19:14 51°13.663 2°55.961 0.5 13 12.7 103170 34
2010-05-20 07:19:20 51°13.663 2°55.961 0.7 14 12.7 103170 34
2010-05-20 07:19:25 51°13.663 2°55.961 0.7 11 12.7 103170 34
2010-05-20 07:19:30 51°13.663 2°55.961 0.7 16 12.7 103170 34
2010-05-20 07:19:34 51°13.663 2°55.961 0.6 18 12.7 103180 36
2010-05-20 07:19:40 51°13.663 2°55.961 0.5 17 12.7 103180 36
2010-05-20 07:19:45 51°13.663 2°55.961 0.8 12 12.7 103170 34
2010-05-20 07:19:50 51°13.663 2°55.961 0.8 12 12.7 103170 34
2010-05-20 07:19:54 51°13.663 2°55.961 0.4 10 12.7 103170 34
2010-05-20 07:20:00 51°13.662 2°55.962 0.2 7 12.7 103170 34
2010-05-20 07:20:05 51°13.662 2°55.962 0.1 9 12.7 103180 34
2010-05-20 07:20:10 51°13.662 2°55.962 -999 14 12.7 103180 34
2010-05-20 07:20:14 51°13.662 2°55.962 0.2 14 12.8 103180 33
2010-05-20 07:20:20 51°13.662 2°55.962 0.1 359 12.8 103170 34
2010-05-20 07:20:25 51°13.662 2°55.962 -999 356 12.8 103170 34
2010-05-20 07:20:30 51°13.662 2°55.962 -999 3 12.8 103180 34
2010-05-20 07:20:34 51°13.662 2°55.962 -999 7 12.8 103180 34
2010-05-20 07:20:40 51°13.662 2°55.962 -999 6 12.8 103180 34
2010-05-20 07:20:45 51°13.662 2°55.962 -999 14 12.8 103180 34
2010-05-20 07:20:50 51°13.662 2°55.962 -999 18 12.8 103180 34
2010-05-20 07:20:55 51°13.662 2°55.963 -999 356 12.8 103180 34
2010-05-20 07:21:00 51°13.662 2°55.963 -999 356 12.8 103180 34
2010-05-20 07:21:05 51°13.662 2°55.963 -999 8 12.8 103180 34
2010-05-20 07:21:10 51°13.662 2°55.963 -999 11 12.8 103180 34
2010-05-20 07:21:15 51°13.662 2°55.962 -999 3 12.8 103180 34
2010-05-20 07:21:20 51°13.662 2°55.962 -999 354 12.8 103180 34
2010-05-20 07:21:25 51°13.662 2°55.962 -999 15 12.8 103180 34
2010-05-20 07:21:30 51°13.662 2°55.962 -999 13 12.8 103180 34
2010-05-20 07:21:35 51°13.662 2°55.962 -999 11 12.8 103180 34
2010-05-20 07:21:40 51°13.662 2°55.962 -999 12 12.8 103180 34
2010-05-20 07:21:45 51°13.662 2°55.962 -999 13 12.8 103180 34
2010-05-20 07:21:50 51°13.662 2°55.962 -999 16 12.8 103180 34
2010-05-20 07:21:54 51°13.662 2°55.962 -999 13 12.8 103180 34
2010-05-20 07:22:00 51°13.662 2°55.962 -999 11 12.8 103180 34
2010-05-20 07:22:05 51°13.662 2°55.962 -999 9 12.9 103180 35
2010-05-20 07:22:10 51°13.662 2°55.962 -999 9 12.9 103180 35
2010-05-20 07:22:14 51°13.662 2°55.962 -999 11 12.9 103180 34
2010-05-20 07:22:20 51°13.663 2°55.962 -999 7 12.9 103180 34
2010-05-20 07:22:25 51°13.663 2°55.962 -999 359 12.9 103170 34
2010-05-20 07:22:30 51°13.663 2°55.962 -999 4 12.9 103170 34
2010-05-20 07:22:34 51°13.663 2°55.962 -999 3 12.9 103180 35
2010-05-20 07:22:40 51°13.663 2°55.962 -999 360 12.9 103180 35
2010-05-20 07:22:45 51°13.663 2°55.962 -999 359 12.9 103180 35
2010-05-20 07:22:50 51°13.663 2°55.962 -999 8 12.9 103180 35
2010-05-20 07:22:54 51°13.663 2°55.962 -999 11 12.9 103170 33
2010-05-20 07:23:00 51°13.663 2°55.962 -999 21 12.9 103170 33
2010-05-20 07:23:05 51°13.663 2°55.962 -999 20 12.9 103180 35
2010-05-20 07:23:10 51°13.663 2°55.962 -999 13 13 103180 34
2010-05-20 07:23:14 51°13.663 2°55.962 -999 10 13 103180 34
2010-05-20 07:23:20 51°13.663 2°55.961 -999 9 13 103180 34
2010-05-20 07:23:25 51°13.663 2°55.96 -999 16 13 103180 34
2010-05-20 07:23:30 51°13.663 2°55.96 0.1 18 13 103170 35
2010-05-20 07:23:34 51°13.663 2°55.96 0.1 12 13 103170 35
2010-05-20 07:23:40 51°13.663 2°55.959 0.1 10 13 103180 35
2010-05-20 07:23:45 51°13.663 2°55.959 -999 14 13 103180 35
2010-05-20 07:23:50 51°13.663 2°55.959 -999 14 13.1 103180 35
2010-05-20 07:23:54 51°13.663 2°55.96 -999 9 13.1 103180 35
2010-05-20 07:24:00 51°13.663 2°55.96 -999 9 13.1 103180 35
2010-05-20 07:24:05 51°13.663 2°55.96 -999 16 13.1 103180 35
2010-05-20 07:24:10 51°13.663 2°55.96 -999 24 13.1 103180 35
2010-05-20 07:24:14 51°13.663 2°55.96 -999 25 13.1 103180 35
2010-05-20 07:24:20 51°13.663 2°55.96 -999 23 13.1 103180 35
2010-05-20 07:24:25 51°13.662 2°55.961 -999 23 13.1 103180 35
2010-05-20 07:24:30 51°13.662 2°55.961 -999 36 13.1 103180 35
2010-05-20 07:24:34 51°13.662 2°55.961 -999 35 13.1 103180 35
2010-05-20 07:24:40 51°13.662 2°55.962 0.1 36 13.2 103180 35
2010-05-20 07:24:45 51°13.662 2°55.962 0.1 11 13.2 103180 35
2010-05-20 07:24:50 51°13.662 2°55.962 0.1 24 13.2 103180 34
2010-05-20 07:24:54 51°13.662 2°55.962 -999 -999 13.2 103180 34
2010-05-20 07:25:00 51°13.662 2°55.962 -999 7 13.2 103180 35
2010-05-20 07:25:05 51°13.662 2°55.962 -999 36 13.2 103180 35
2010-05-20 07:25:10 51°13.662 2°55.962 -999 22 13.2 103180 34
2010-05-20 07:25:14 51°13.662 2°55.962 -999 28 13.2 103180 34
2010-05-20 07:25:20 51°13.662 2°55.962 0.1 28 13.2 103180 34
2010-05-20 07:25:25 51°13.662 2°55.962 0.1 25 13.2 103180 35
2010-05-20 07:25:31 51°13.662 2°55.962 0.1 28 13.2 103180 33
2010-05-20 07:25:34 51°13.662 2°55.962 -999 35 13.2 103180 33
2010-05-20 07:25:39 51°13.662 2°55.962 -999 32 13.2 103180 33
2010-05-20 07:25:45 51°13.662 2°55.962 -999 36 13.3 103180 34
2010-05-20 07:25:50 51°13.662 2°55.962 -999 28 13.3 103180 34
2010-05-20 07:25:55 51°13.662 2°55.962 -999 18 13.3 103180 34
2010-05-20 07:26:00 51°13.661 2°55.962 -999 4 13.3 103180 35
2010-05-20 07:26:05 51°13.661 2°55.962 0.1 5 13.3 103180 35
2010-05-20 07:26:10 51°13.661 2°55.961 0.1 15 13.3 103180 34
2010-05-20 07:26:15 51°13.661 2°55.961 -999 24 13.3 103180 34
2010-05-20 07:26:20 51°13.661 2°55.961 -999 23 13.3 103180 34
2010-05-20 07:26:25 51°13.661 2°55.961 -999 6 13.3 103180 34
2010-05-20 07:26:30 51°13.661 2°55.96 -999 11 13.3 103180 34
2010-05-20 07:26:35 51°13.661 2°55.959 -999 23 13.3 103180 34
2010-05-20 07:26:40 51°13.662 2°55.958 -999 23 13.3 103180 35
2010-05-20 07:26:45 51°13.662 2°55.956 -999 25 13.3 103180 35
2010-05-20 07:26:50 51°13.663 2°55.953 0.1 30 13.3 103180 35
2010-05-20 07:26:55 51°13.663 2°55.95 0.1 40 13.3 103180 35
2010-05-20 07:26:59 51°13.664 2°55.947 0.3 35 13.3 103180 35
2010-05-20 07:27:05 51°13.665 2°55.941 0.1 44 13.3 103180 35
2010-05-20 07:27:11 51°13.667 2°55.935 0.8 38 13.3 103180 35
2010-05-20 07:27:16 51°13.668 2°55.929 1.7 45 13.3 103180 35
2010-05-20 07:27:23 51°13.671 2°55.92 1.6 44 13.3 103180 35
2010-05-20 07:27:28 51°13.672 2°55.913 2.3 42 13.3 103180 34
2010-05-20 07:27:34 51°13.675 2°55.905 1.2 39 13.3 103180 35
2010-05-20 07:27:39 51°13.676 2°55.898 1.3 78 13.3 103180 35
2010-05-20 07:27:43 51°13.678 2°55.892 1.5 41 13.3 103180 34
2010-05-20 07:27:49 51°13.68 2°55.883 2.2 74 13.3 103180 34
2010-05-20 07:27:54 51°13.681 2°55.875 2.3 32 13.3 103180 35
2010-05-20 07:27:59 51°13.683 2°55.868 2.6 36 13.3 103180 35
2010-05-20 07:28:03 51°13.684 2°55.862 1.9 35 13.3 103180 34
2010-05-20 07:28:09 51°13.686 2°55.852 1.2 81 13.3 103180 34
2010-05-20 07:28:14 51°13.687 2°55.845 1.2 37 13.3 103180 33
2010-05-20 07:28:19 51°13.689 2°55.837 1.6 77 13.3 103180 33
2010-05-20 07:28:23 51°13.69 2°55.831 2.2 44 13.3 103180 35
2010-05-20 07:28:29 51°13.691 2°55.823 1.5 44 13.3 103180 35
2010-05-20 07:28:34 51°13.692 2°55.816 1 42 13.3 103180 35
2010-05-20 07:28:39 51°13.693 2°55.809 1 38 13.3 103180 34
2010-05-20 07:28:43 51°13.694 2°55.803 0.6 41 13.3 103180 34
2010-05-20 07:28:48 51°13.695 2°55.797 0.5 31 13.3 103180 34
2010-05-20 07:28:54 51°13.696 2°55.789 0.2 29 13.3 103180 34
2010-05-20 07:28:59 51°13.696 2°55.783 0.1 78 13.3 103180 34
2010-05-20 07:29:03 51°13.697 2°55.778 0.1 36 13.3 103180 35
2010-05-20 07:29:09 51°13.698 2°55.77 0.9 43 13.3 103180 35
2010-05-20 07:29:13 51°13.698 2°55.765 1 33 13.3 103180 34
2010-05-20 07:29:19 51°13.698 2°55.759 0.9 34 13.3 103180 34
2010-05-20 07:29:23 51°13.698 2°55.755 1 41 13.3 103180 34
2010-05-20 07:29:28 51°13.698 2°55.75 0.7 42 13.3 103180 34
2010-05-20 07:29:33 51°13.698 2°55.746 0.7 42 13.3 103180 34
2010-05-20 07:29:38 51°13.699 2°55.742 0.2 37 13.3 103180 34
2010-05-20 07:29:43 51°13.699 2°55.739 0.7 35 13.3 103180 34
2010-05-20 07:29:47 51°13.7 2°55.737 0.3 42 13.3 103180 35
2010-05-20 07:29:52 51°13.7 2°55.735 1.3 34 13.3 103180 35
2010-05-20 07:29:57 51°13.7 2°55.735 0.7 42 13.3 103180 34
2010-05-20 07:30:02 51°13.7 2°55.734 0.4 33 13.3 103180 34
2010-05-20 07:30:07 51°13.701 2°55.734 0.1 78 13.3 103180 34
2010-05-20 07:30:12 51°13.701 2°55.734 0.1 35 13.3 103180 34
2010-05-20 07:30:16 51°13.702 2°55.734 -999 78 13.3 103180 35
2010-05-20 07:30:21 51°13.703 2°55.734 -999 35 13.3 103180 35
2010-05-20 07:30:26 51°13.704 2°55.735 -999 78 13.3 103180 35
2010-05-20 07:30:31 51°13.706 2°55.735 -999 35 13.3 103180 35
2010-05-20 07:30:36 51°13.707 2°55.736 -999 78 13.3 103180 35
2010-05-20 07:30:41 51°13.709 2°55.736 -999 35 13.4 103180 35
2010-05-20 07:30:46 51°13.71 2°55.737 -999 78 13.4 103180 35
2010-05-20 07:30:51 51°13.711 2°55.737 -999 35 13.4 103180 35
2010-05-20 07:30:55 51°13.711 2°55.737 0.4 74 13.4 103180 33
2010-05-20 07:31:00 51°13.711 2°55.736 0.4 34 13.4 103180 35
2010-05-20 07:31:05 51°13.71 2°55.735 0.2 79 13.4 103180 35
2010-05-20 07:31:10 51°13.71 2°55.734 0.2 38 13.4 103180 35
2010-05-20 07:31:15 51°13.708 2°55.732 0.4 74 13.4 103180 35
2010-05-20 07:31:20 51°13.707 2°55.731 0.2 37 13.5 103180 35
2010-05-20 07:31:25 51°13.706 2°55.73 0.1 78 13.5 103180 35
2010-05-20 07:31:31 51°13.704 2°55.729 1.1 30 13.5 103180 35
2010-05-20 07:31:36 51°13.704 2°55.728 1.3 76 13.5 103180 35
2010-05-20 07:31:42 51°13.703 2°55.727 1.5 40 13.5 103180 35
2010-05-20 07:31:48 51°13.704 2°55.727 1.6 74 13.5 103180 35
2010-05-20 07:31:54 51°13.705 2°55.726 1.4 38 13.5 103180 35
2010-05-20 07:31:59 51°13.706 2°55.726 1.4 26 13.5 103180 34
2010-05-20 07:32:03 51°13.708 2°55.725 0.2 264 13.5 103180 34
2010-05-20 07:32:09 51°13.71 2°55.725 0.1 282 13.6 103180 35
2010-05-20 07:32:14 51°13.713 2°55.723 0.1 256 13.6 103180 35
2010-05-20 07:32:19 51°13.716 2°55.722 0.5 278 13.6 103180 34
2010-05-20 07:32:23 51°13.72 2°55.72 0.3 242 13.6 103180 34
2010-05-20 07:32:28 51°13.724 2°55.717 0.1 282 13.6 103180 34
2010-05-20 07:32:33 51°13.73 2°55.713 0.1 236 13.6 103180 36
2010-05-20 07:32:38 51°13.735 2°55.709 -999 282 13.6 103180 36
2010-05-20 07:32:43 51°13.742 2°55.704 -999 36 13.6 103180 34
2010-05-20 07:32:47 51°13.748 2°55.7 -999 282 13.6 103180 34
2010-05-20 07:32:52 51°13.755 2°55.695 -999 35 13.6 103180 34
2010-05-20 07:32:57 51°13.764 2°55.689 -999 282 13.6 103180 34
2010-05-20 07:33:02 51°13.772 2°55.683 -999 35 13.6 103180 34
2010-05-20 07:33:07 51°13.781 2°55.677 -999 282 13.7 103180 34
2010-05-20 07:33:11 51°13.788 2°55.672 -999 323 13.7 103180 34
2010-05-20 07:33:17 51°13.799 2°55.664 -999 282 13.7 103180 34
2010-05-20 07:33:22 51°13.808 2°55.657 1.9 324 13.7 103180 34
2010-05-20 07:33:26 51°13.816 2°55.651 2.5 278 13.7 103180 34
2010-05-20 07:33:31 51°13.825 2°55.644 2.4 320 13.7 103180 34
2010-05-20 07:33:35 51°13.833 2°55.638 1.8 284 13.7 103180 33
2010-05-20 07:33:41 51°13.845 2°55.629 3 328 13.7 103180 34
2010-05-20 07:33:46 51°13.856 2°55.622 2.2 285 13.7 103180 34
2010-05-20 07:33:51 51°13.866 2°55.614 2.9 332 13.7 103180 34
2010-05-20 07:33:55 51°13.874 2°55.608 2.9 282 13.7 103180 34
2010-05-20 07:34:00 51°13.885 2°55.601 3.7 329 13.7 103180 35
2010-05-20 07:34:05 51°13.895 2°55.593 3.4 287 13.7 103180 35
2010-05-20 07:34:10 51°13.906 2°55.585 3 327 13.7 103180 35
2010-05-20 07:34:15 51°13.917 2°55.578 2.9 282 13.7 103180 35
2010-05-20 07:34:20 51°13.928 2°55.57 3.2 328 13.7 103180 35
2010-05-20 07:34:25 51°13.938 2°55.562 3.4 285 13.7 103170 33
2010-05-20 07:34:31 51°13.951 2°55.552 3.1 327 13.7 103170 33
2010-05-20 07:34:35 51°13.96 2°55.545 3.1 279 13.7 103170 34
2010-05-20 07:34:40 51°13.971 2°55.537 2.9 331 13.7 103170 34
2010-05-20 07:34:45 51°13.981 2°55.529 2.6 278 13.7 103170 34
2010-05-20 07:34:50 51°13.992 2°55.52 2.8 321 13.7 103170 35
2010-05-20 07:34:55 51°14.003 2°55.512 2.6 277 13.7 103170 35
2010-05-20 07:35:00 51°14.014 2°55.505 2.2 323 13.7 103170 34
2010-05-20 07:35:05 51°14.025 2°55.497 1.7 286 13.7 103170 34
2010-05-20 07:35:10 51°14.036 2°55.49 2 319 13.7 103170 34
2010-05-20 07:35:15 51°14.047 2°55.482 1.7 285 13.7 103180 33
2010-05-20 07:35:20 51°14.058 2°55.474 1.9 331 13.7 103170 35
2010-05-20 07:35:25 51°14.069 2°55.466 2.3 282 13.7 103170 35
2010-05-20 07:35:30 51°14.08 2°55.458 3.1 323 13.7 103170 35
2010-05-20 07:35:35 51°14.091 2°55.449 2.8 280 13.7 103180 35
2010-05-20 07:35:40 51°14.101 2°55.44 3.4 327 13.7 103180 35
2010-05-20 07:35:45 51°14.112 2°55.431 3.2 284 13.7 103180 35
2010-05-20 07:35:50 51°14.123 2°55.422 3.2 318 13.7 103180 35
2010-05-20 07:35:55 51°14.134 2°55.412 3.6 280 13.7 103170 35
2010-05-20 07:35:59 51°14.142 2°55.404 2.9 323 13.6 103180 34
2010-05-20 07:36:05 51°14.156 2°55.391 2.9 278 13.6 103180 34
2010-05-20 07:36:10 51°14.167 2°55.381 2.9 322 13.6 103170 34
2010-05-20 07:36:15 51°14.178 2°55.37 2.6 278 13.6 103170 34
2010-05-20 07:36:20 51°14.189 2°55.36 2.4 323 13.6 103170 35
2010-05-20 07:36:25 51°14.2 2°55.349 3 284 13.6 103170 35
2010-05-20 07:36:30 51°14.212 2°55.338 3.2 325 13.6 103170 33
2010-05-20 07:36:35 51°14.223 2°55.326 3.7 283 13.6 103170 33
2010-05-20 07:36:40 51°14.235 2°55.315 3.5 326 13.6 103170 33
2010-05-20 07:36:45 51°14.246 2°55.304 4 282 13.6 103170 34
2010-05-20 07:36:50 51°14.259 2°55.292 3.6 330 13.6 103180 34
2010-05-20 07:36:55 51°14.271 2°55.28 4.3 284 13.6 103180 34
2010-05-20 07:37:00 51°14.283 2°55.268 4.7 322 13.6 103170 35
2010-05-20 07:37:05 51°14.296 2°55.255 5 279 13.6 103170 35
2010-05-20 07:37:10 51°14.309 2°55.243 5.1 321 13.6 103170 33
2010-05-20 07:37:15 51°14.322 2°55.23 5.4 284 13.6 103170 33
2010-05-20 07:37:20 51°14.335 2°55.218 4.9 325 13.6 103170 34
2010-05-20 07:37:25 51°14.348 2°55.205 5.2 278 13.6 103170 34
2010-05-20 07:37:30 51°14.362 2°55.192 5.5 321 13.6 103170 35
2010-05-20 07:37:35 51°14.376 2°55.179 5.8 284 13.6 103170 35
2010-05-20 07:37:40 51°14.39 2°55.167 5.4 320 13.6 103170 35
2010-05-20 07:37:45 51°14.404 2°55.154 5.7 284 13.6 103170 35
2010-05-20 07:37:50 51°14.419 2°55.142 5.2 321 13.6 103170 35
2010-05-20 07:37:55 51°14.434 2°55.13 5.8 282 13.6 103170 35
2010-05-20 07:38:00 51°14.45 2°55.119 5.6 322 13.6 103170 34
2010-05-20 07:38:05 51°14.465 2°55.107 5.6 282 13.6 103170 34
2010-05-20 07:38:10 51°14.479 2°55.093 5.9 320 13.6 103170 34
2010-05-20 07:38:15 51°14.493 2°55.078 5.4 277 13.6 103170 35
2010-05-20 07:38:20 51°14.507 2°55.062 6 320 13.6 103170 35